Wind_Speed
15 15 16 16 16 16 17 18 18 19 19 18 18 19 19 20 21 22 22 23 24 24 25 26 27 27 27 28 29 29 30 31 32 33 33 34 35 36 37 38 38 38 39 39 40 41 42 44 45 46 47 49 50 51 53 54 56 58 60 61 63 65 66 67 67 68 69 70 72 73 74 75 75 76 77 78 80 81 82 83 84 85 86 87 88
16 16 16 17 17 17 18 18 19 20 19 18 18 19 20 21 22 23 24 24 25 25 26 26 27 28 28 29 30 31 31 32 33 34 35 35 36 37 38 38 39 40 40 41 41 42 43 44 45 47 48 49 51 52 53 55 56 58 60 62 63 65 66 68 69 70 71 72 73 75 76 77 77 78 79 80 81 82 83 84 85 86 87 88 89
16 16 17 17 18 19 19 20 20 21 21 20 20 20 21 22 23 24 25 25 26 26 27 27 28 29 30 31 32 33 33 34 34 35 36 36 37 37 38 39 41 41 42 42 43 43 44 45 46 47 48 50 51 53 55 56 58 59 61 62 63 64 66 67 69 71 73 74 75 76 77 78 79 79 81 81 82 83 84 85 86 86 87 88 89
16 16 17 18 19 19 20 21 21 22 22 22 22 22 23 24 25 25 25 26 27 27 28 29 30 31 32 33 34 34 35 35 35 36 36 36 37 38 39 41 41 42 43 43 44 44 45 46 47 49 50 52 53 54 56 58 59 61 62 63 64 65 66 67 68 70 72 74 75 77 78 80 81 81 82 83 84 85 86 87 87 87 88 88 90
16 17 18 19 20 20 21 22 23 23 23 23 24 25 25 25 26 26 26 27 28 29 30 31 32 33 34 35 36 35 35 36 36 36 36 37 38 39 40 41 42 43 43 44 45 46 47 48 49 51 53 54 55 57 58 60 61 62 63 64 66 66 67 68 69 70 72 74 75 78 80 81 82 83 83 84 85 86 87 88 89 88 89 90 92
18 19 20 20 21 22 23 24 25 25 25 25 26 26 27 27 27 27 28 28 29 30 32 34 35 35 36 36 37 36 36 36 37 37 37 38 39 40 41 42 43 43 44 46 47 48 50 51 52 53 55 57 58 60 61 61 62 64 65 66 67 68 69 70 71 72 73 75 76 77 79 81 83 84 85 85 86 87 88 89 88 88 90 93 95
20 21 21 22 23 24 25 26 27 27 27 27 27 28 28 28 28 29 30 30 32 32 34 35 36 37 37 37 37 37 36 37 38 38 39 40 41 42 43 44 44 45 47 48 49 51 52 53 54 56 57 59 61 62 63 63 65 65 66 68 69 70 71 72 73 74 75 76 77 78 79 81 83 85 86 87 88 89 89 88 88 89 92 96 97
22 23 23 24 25 26 27 28 29 29 29 29 29 29 30 30 30 31 32 33 34 35 36 37 38 38 38 38 38 38 38 38 39 40 40 41 43 44 45 45 46 47 49 50 52 53 54 55 56 57 59 61 63 64 65 66 67 68 69 69 70 71 73 74 75 76 76 77 78 79 80 81 83 85 86 87 89 91 91 89 89 91 95 98 99
24 24 25 26 27 28 28 30 30 31 31 31 31 31 31 32 32 33 35 35 36 37 37 38 39 39 39 39 39 40 40 40 41 42 43 44 45 46 47 48 49 50 51 53 54 55 56 56 57 58 59 61 64 65 66 67 68 70 72 72 72 73 74 75 76 77 78 79 79 80 81 81 82 84 86 87 89 90 90 91 93 96 98 100 101
26 27 27 28 28 29 30 31 32 32 33 33 33 33 34 34 34 35 37 38 38 39 39 40 41 41 40 40 41 42 42 43 44 44 45 46 48 49 50 51 52 53 54 55 56 57 58 59 59 60 61 62 64 66 68 69 70 72 74 74 75 76 76 77 77 78 79 80 81 81 82 82 83 85 86 87 88 88 88 91 96 101 102 103 103
28 29 30 30 31 31 32 33 34 34 34 34 35 35 36 36 37 38 39 40 40 40 40 41 42 43 42 42 43 45 45 45 46 47 48 50 51 52 53 54 55 56 57 58 59 59 60 61 62 63 63 64 66 67 69 70 72 74 76 77 78 78 79 79 79 80 80 81 82 82 83 83 84 85 86 87 87 87 87 91 97 102 104 105 105
31 32 33 33 33 34 34 35 36 36 36 36 37 37 38 38 39 40 41 42 42 41 41 42 43 44 44 44 46 47 47 48 49 50 52 53 54 55 56 57 58 59 60 61 61 62 62 63 64 65 65 67 68 70 72 73 75 76 78 79 79 80 80 81 82 82 82 82 83 84 84 85 86 86 87 88 87 87 90 94 98 101 104 105 106
34 35 35 36 36 36 36 36 37 38 38 38 38 39 39 40 41 42 42 43 43 42 42 43 45 46 46 47 48 49 49 50 51 53 54 56 57 58 59 60 61 62 62 63 64 64 65 66 66 66 67 69 71 73 75 76 77 79 80 80 81 81 82 82 83 84 84 84 84 85 85 86 87 88 88 88 88 90 94 98 101 103 103 104 106
36 37 37 38 38 38 38 38 38 39 40 40 40 40 41 42 43 43 43 44 45 45 44 45 46 47 48 49 51 51 51 52 53 55 56 58 59 60 61 62 63 64 64 65 66 66 67 68 68 69 70 72 74 76 77 78 80 81 82 82 83 83 83 84 85 85 86 86 86 87 87 88 88 89 89 88 90 95 99 102 104 104 104 105 107
39 39 39 40 40 40 40 40 40 41 41 42 42 43 43 44 44 44 45 46 47 47 47 47 48 48 50 52 53 53 54 55 55 57 58 60 61 62 63 64 65 66 66 67 68 69 70 70 71 72 73 75 77 78 80 81 83 84 84 85 85 85 85 86 86 86 87 87 88 88 88 89 89 89 89 91 95 99 102 104 106 106 106 107 110
41 41 42 42 42 42 42 43 43 43 43 44 45 45 46 46 46 46 47 48 49 49 49 50 49 49 51 53 55 56 57 58 58 59 60 61 62 64 65 66 67 68 69 70 70 71 72 73 74 75 76 78 79 80 82 84 85 86 87 87 87 87 87 87 87 88 89 89 90 90 91 91 90 90 92 96 100 101 103 106 107 108 108 111 113
43 43 44 44 44 44 45 45 45 45 45 46 47 47 48 48 48 49 49 50 51 51 52 52 52 51 52 54 56 57 60 61 61 63 63 63 64 65 66 67 69 69 70 71 72 73 74 75 76 77 78 80 81 83 85 86 88 89 89 89 89 89 89 89 89 90 91 91 92 92 92 92 92 94 97 100 102 103 105 107 109 109 111 115 116
45 45 45 46 46 46 47 47 47 47 48 48 49 50 50 50 51 51 52 52 52 54 55 55 55 55 55 56 57 58 61 62 63 65 67 68 68 68 69 70 71 72 72 73 74 75 76 77 78 79 81 83 85 86 88 89 90 91 91 92 92 91 92 92 92 93 94 94 94 94 93 93 95 98 101 102 103 105 108 109 110 112 116 118 119
47 47 47 48 48 48 49 49 50 50 50 51 52 52 53 53 53 54 54 55 55 56 57 57 58 59 58 59 60 60 61 63 64 65 67 71 73 73 73 73 74 75 75 75 77 79 80 81 81 82 84 86 88 90 91 92 92 93 93 93 94 94 94 94 95 96 96 97 96 95 95 97 100 102 103 104 106 108 109 110 113 116 119 120 122
50 49 49 50 50 51 51 52 52 53 53 54 54 55 55 56 56 57 57 57 58 58 59 60 60 62 62 62 63 63 64 64 66 66 66 70 74 77 77 76 77 79 79 78 80 83 83 84 85 86 88 90 92 93 94 94 94 95 95 95 96 96 96 97 98 98 98 99 98 97 99 101 103 104 105 107 109 111 111 113 117 119 122 123 124
53 52 53 53 54 54 54 55 56 56 56 57 58 58 58 59 59 59 60 60 60 61 62 62 63 64 65 65 65 66 67 67 68 69 69 69 72 77 79 78 78 81 83 83 85 87 87 87 88 90 92 94 95 96 96 96 96 97 97 97 97 97 98 99 99 100 100 99 99 101 103 104 106 106 108 109 111 112 114 117 120 122 124 125 126
56 56 56 56 57 57 57 58 58 58 59 60 61 61 61 61 61 62 62 63 63 64 64 65 66 66 67 68 68 69 69 71 72 72 72 72 72 74 79 80 79 82 85 85 87 90 91 92 92 94 96 97 97 98 98 98 98 98 98 98 98 99 100 100 101 101 100 101 102 104 106 107 108 109 111 112 113 115 118 121 123 124 126 127 128
59 59 59 60 59 59 60 60 61 61 62 63 63 64 64 64 64 64 65 66 67 67 67 68 69 70 70 70 71 72 72 74 75 75 75 75 74 74 77 80 80 83 86 87 87 89 92 94 96 98 99 100 100 100 100 100 100 100 99 100 100 101 101 101 101 101 102 104 105 107 108 109 111 112 113 114 117 120 122 124 125 127 128 129 131
62 62 63 63 62 62 62 63 63 64 65 65 65 65 66 66 66 67 68 69 70 70 70 72 73 73 73 73 73 74 76 77 78 78 77 77 77 77 78 80 81 83 87 89 89 90 92 96 99 100 102 102 103 102 102 102 102 101 101 102 102 103 103 102 102 103 105 106 108 109 110 111 112 113 115 117 120 123 125 127 128 129 130 132 134
65 65 66 66 64 64 65 65 65 66 66 67 67 68 68 68 69 69 71 72 73 73 74 75 76 77 77 77 77 77 79 80 81 80 80 80 81 81 81 82 82 83 86 89 91 93 96 99 101 103 103 104 104 104 104 104 104 103 103 104 105 105 104 104 105 107 108 109 110 111 112 112 114 115 118 121 123 126 128 129 129 131 133 135 136
69 69 69 68 67 67 67 67 68 68 68 69 69 70 70 70 71 72 73 74 75 76 77 78 79 80 81 80 80 81 82 83 84 83 83 84 84 84 84 85 85 85 87 89 92 96 99 102 103 104 105 106 106 106 105 105 105 105 105 105 106 106 107 107 109 109 110 111 112 112 113 114 116 119 122 124 127 128 130 131 132 134 136 137 138
72 73 72 72 70 70 70 70 70 71 71 72 72 73 73 73 74 75 76 77 78 78 79 81 82 83 84 83 83 84 85 86 86 86 87 88 87 87 87 87 87 87 88 91 94 98 101 103 105 106 107 107 107 107 107 107 107 107 107 107 108 109 110 110 111 112 113 113 114 115 116 118 121 124 126 128 130 131 132 133 135 137 138 139 138
76 76 76 75 74 73 73 73 73 74 74 75 75 75 76 76 76 77 79 80 80 81 82 83 84 85 86 86 86 87 88 89 88 88 90 90 90 91 91 91 90 90 92 94 97 99 101 103 105 107 108 108 108 108 109 109 108 109 109 110 111 112 113 113 114 114 115 116 116 118 120 122 125 128 130 132 133 134 135 137 139 140 140 139 137
79 79 79 78 77 77 77 76 77 77 77 78 78 78 79 79 79 80 82 83 83 83 84 85 86 87 88 88 89 90 91 91 91 91 92 93 93 93 94 95 95 95 96 97 98 100 102 103 105 107 108 108 108 109 110 110 110 111 112 113 114 114 115 116 117 117 117 118 120 122 124 127 129 131 133 134 135 136 138 140 141 141 141 139 135
82 82 82 81 81 81 81 80 81 81 81 81 81 82 82 82 82 83 85 85 85 85 87 88 89 89 90 91 92 93 93 93 93 94 95 95 96 96 98 99 100 100 99 98 98 100 103 104 105 106 107 107 108 109 110 110 111 112 114 115 115 116 117 118 118 119 120 122 124 127 129 130 132 133 134 136 137 139 141 142 143 142 140 137 134
84 84 84 85 85 85 85 85 85 85 84 85 85 85 85 85 86 87 88 89 89 89 90 91 92 92 93 94 94 95 95 95 96 97 98 98 99 101 102 103 104 103 103 101 99 101 104 105 105 106 107 107 109 110 111 111 112 113 114 115 116 117 117 118 119 121 123 126 128 130 131 132 134 135 136 137 139 141 142 143 142 141 138 135 132
88 88 88 88 88 88 88 88 88 88 88 88 88 89 89 89 90 91 92 92 92 92 93 94 95 96 96 96 97 97 97 97 98 100 101 102 104 105 106 107 107 106 106 104 102 103 105 106 106 107 108 109 110 111 111 111 113 114 115 116 116 117 118 119 121 125 127 129 131 132 133 134 136 137 138 140 141 143 143 143 141 139 136 132 128
91 91 90 91 91 91 91 91 91 91 91 91 91 92 92 92 93 94 95 95 95 96 97 98 99 99 99 98 99 100 100 100 102 104 106 107 107 108 109 109 109 109 109 107 106 105 107 108 109 110 111 110 110 110 111 112 114 115 116 117 117 118 121 123 126 129 130 131 132 133 135 136 138 139 140 142 143 144 144 142 139 136 132 128 126
94 93 93 94 94 94 94 94 94 94 94 94 95 95 95 95 96 97 98 98 99 100 100 101 101 102 101 101 102 103 104 105 106 108 110 110 110 110 111 111 112 112 112 110 109 108 108 110 112 113 113 112 112 112 113 114 115 116 117 119 121 123 126 128 130 131 132 133 134 136 137 139 140 142 143 144 144 144 142 139 135 131 128 127 125
97 96 96 96 96 96 96 97 97 97 97 97 98 98 99 99 100 100 101 101 102 103 103 104 104 104 104 104 106 107 108 109 110 111 112 112 112 112 113 114 114 114 114 113 112 111 110 112 113 114 114 114 115 115 116 116 117 118 120 123 126 128 130 131 131 132 133 135 137 138 140 142 143 145 145 145 144 142 139 134 131 129 128 126 121
99 99 99 99 99 99 99 100 100 100 100 101 101 102 102 102 103 103 104 104 105 105 106 106 107 107 107 108 110 111 111 112 113 113 114 114 114 115 115 116 116 116 116 116 115 114 113 113 115 116 117 117 117 118 118 119 121 123 126 128 130 131 132 132 133 134 135 137 139 141 142 144 145 146 146 145 142 139 135 133 132 129 125 120 116
102 102 102 102 102 102 102 103 103 103 104 104 104 105 105 105 105 106 107 107 108 108 109 110 110 111 111 112 113 113 114 114 115 115 116 116 116 117 117 118 118 118 118 118 118 117 116 116 116 118 119 119 120 121 122 124 126 128 130 131 132 132 133 134 135 136 138 140 142 143 145 146 147 146 144 141 138 136 135 134 130 125 119 115 111
106 105 105 105 106 106 106 106 106 107 107 107 107 107 108 108 109 109 110 111 111 111 112 113 114 114 114 114 115 115 116 116 117 117 117 117 117 118 119 119 120 120 120 120 119 119 118 117 118 119 121 123 124 126 127 129 130 131 132 133 134 135 136 136 138 139 141 143 145 146 147 147 146 143 140 137 137 137 135 130 125 119 114 111 108
108 108 109 109 109 109 109 109 109 110 110 110 110 110 111 111 111 112 113 113 114 115 115 116 116 116 116 116 117 117 117 118 118 117 117 118 118 119 120 120 120 120 120 120 120 120 120 120 122 123 125 126 128 130 131 133 133 134 135 135 136 138 138 139 141 143 144 146 147 147 146 145 143 140 138 138 137 134 129 124 119 115 111 108 105
110 111 111 111 111 111 111 112 112 112 112 112 112 112 113 113 114 114 115 116 116 117 117 118 118 117 118 118 118 118 118 118 118 118 119 119 120 121 121 121 121 121 121 122 123 123 124 125 126 127 128 130 132 133 135 136 136 137 138 138 138 140 141 143 144 146 147 148 147 145 143 142 141 140 139 137 133 128 122 118 114 111 108 106 103
113 113 112 112 112 112 113 113 114 114 114 114 115 115 115 116 116 117 117 118 118 118 119 118 119 119 119 119 119 119 119 119 119 120 121 121 121 121 122 122 123 124 125 126 127 128 129 129 130 131 132 133 135 137 138 139 140 140 141 141 142 143 144 146 148 149 149 147 144 142 142 141 141 138 135 131 127 121 116 113 111 108 105 103 101
116 116 115 115 115 115 115 116 116 116 117 117 117 117 118 118 118 118 119 119 119 119 120 120 120 120 120 120 120 120 121 121 122 122 122 123 123 124 125 126 128 129 130 131 132 132 132 133 133 134 135 137 139 140 141 142 142 143 144 145 146 147 148 149 149 149 148 146 143 141 141 141 139 134 130 125 120 116 112 110 107 104 102 100 99
119 119 118 118 118 118 118 118 118 118 119 119 119 119 119 120 120 120 120 120 121 121 121 121 121 121 121 122 123 123 123 123 124 124 125 126 127 129 130 132 133 134 135 135 136 136 136 136 136 137 138 140 142 143 143 144 145 146 148 149 150 151 151 149 148 147 147 145 142 140 138 137 134 129 124 119 115 111 109 106 103 101 98 96 94
121 121 121 120 120 120 120 120 121 121 121 121 121 121 121 122 122 122 122 122 122 122 122 122 123 123 124 124 125 125 126 127 128 129 130 132 133 135 136 137 138 139 139 139 139 138 138 138 139 140 142 143 144 145 146 147 148 150 151 152 153 152 150 149 147 146 146 144 142 138 134 132 129 123 118 114 111 108 106 102 99 97 94 92 89
123 123 123 123 123 123 123 123 123 123 123 123 123 123 123 123 123 123 123 123 124 124 124 125 125 126 126 127 128 129 130 131 133 134 135 137 138 139 140 141 141 142 142 141 141 140 140 141 142 144 145 146 147 148 149 150 152 153 154 154 153 151 149 148 147 146 145 144 140 135 129 126 123 117 113 112 109 106 104 100 96 93 90 88 85
127 126 126 126 126 125 125 125 125 125 125 125 125 125 125 125 125 125 125 126 126 126 127 127 128 129 130 131 132 133 135 136 137 138 139 140 141 142 143 144 144 144 143 142 142 142 143 144 145 146 147 148 150 151 152 154 154 154 153 152 151 149 148 147 146 145 144 141 137 131 125 121 118 114 111 110 108 105 102 99 95 92 88 85 82
130 130 130 129 129 129 129 129 128 128 128 128 128 128 128 127 127 127 128 128 129 129 130 130 132 133 134 136 137 138 139 140 141 142 142 143 144 145 145 145 145 145 144 144 144 145 146 147 148 149 150 151 153 154 155 155 154 153 151 149 148 148 147 145 144 142 140 136 133 127 121 118 116 112 110 109 106 104 102 99 95 92 88 84 81
133 133 133 132 132 132 132 131 131 131 131 131 131 130 130 130 130 130 130 131 131 132 133 134 136 137 139 140 141 141 142 143 144 144 145 145 146 146 146 146 146 146 146 146 147 148 148 149 150 151 153 154 155 156 155 154 152 150 149 148 148 147 145 143 140 137 134 131 128 125 120 116 115 112 109 107 104 102 101 98 95 92 89 85 81
136 135 135 135 134 134 134 133 133 132 132 132 132 132 132 132 132 133 133 134 135 136 137 139 140 141 142 143 143 143 144 145 145 146 146 146 146 146 147 147 148 148 149 149 150 150 151 151 153 154 155 155 155 154 152 151 149 149 148 147 146 145 142 139 136 132 129 127 125 123 120 117 116 113 109 106 103 101 99 98 95 92 90 86 82
137 137 136 136 135 135 134 134 133 133 133 133 133 133 134 134 135 136 137 138 139 140 142 143 144 144 145 145 145 145 145 145 145 145 146 146 147 148 149 150 151 151 152 152 152 153 154 154 155 155 155 154 153 151 150 149 148 148 146 144 143 141 138 135 132 129 125 123 123 122 120 117 116 114 110 106 101 99 99 98 96 93 90 87 84
137 137 137 136 136 135 135 135 135 135 135 135 136 136 137 138 139 140 142 143 144 145 145 146 146 146 145 145 145 145 145 146 146 147 147 148 149 150 152 153 154 154 155 155 156 156 156 156 155 154 153 152 150 149 148 148 147 145 144 141 139 137 134 132 129 126 123 122 122 121 119 117 115 113 111 107 101 97 97 98 97 95 91 87 85
Wind_Direction
282 285 287 289 291 293 295 296 297 298 300 304 309 313 315 315 316 316 315 316 316 317 316 316 316 316 317 318 318 319 319 319 319 319 319 319 320 320 320 321 322 324 325 326 326 327 327 328 329 329 330 330 331 332 333 333 334 333 333 334 334 334 334 334 334 334 335 335 335 336 336 336 337 337 338 338 338 338 338 338 338 338 338 338 337
280 283 285 288 290 293 294 295 296 297 300 305 309 311 311 310 310 310 311 312 313 313 313 313 314 314 315 315 316 316 316 316 316 317 317 318 319 320 320 320 322 323 324 325 325 326 326 327 328 329 330 330 331 332 332 333 333 332 332 332 332 333 332 332 332 332 333 333 334 334 335 335 336 336 337 337 337 337 337 337 337 337 337 336 335
280 283 285 288 290 292 293 295 296 298 301 305 306 305 305 305 305 306 307 310 311 311 311 311 311 312 312 313 313 313 313 314 314 315 316 317 318 319 320 320 322 323 324 324 325 325 326 327 328 329 329 330 331 331 331 331 331 331 331 330 331 331 330 330 330 330 330 331 332 332 333 334 334 335 335 336 336 336 336 336 336 336 335 335 333
283 285 287 289 290 291 293 294 295 297 300 302 302 301 301 301 302 303 305 307 308 308 308 308 309 310 310 310 311 311 311 312 313 314 316 317 318 319 319 320 321 323 323 324 324 325 326 327 327 328 328 328 329 329 329 329 329 329 329 329 329 329 328 327 327 327 328 328 329 330 331 332 332 333 333 334 334 334 335 335 335 335 334 333 332
282 285 286 288 290 290 291 291 292 294 296 298 298 298 298 299 300 302 304 305 305 306 306 306 307 308 308 308 309 310 310 311 312 314 315 316 318 318 318 319 321 322 322 323 324 324 325 325 326 326 326 327 328 328 328 328 328 328 328 327 327 327 326 326 325 325 325 326 326 327 328 330 330 331 332 332 332 333 333 333 333 333 332 332 331
280 282 284 286 286 287 288 289 290 292 293 294 295 295 296 298 299 300 301 302 303 304 304 305 305 306 307 307 307 308 309 310 311 313 314 315 317 317 317 318 320 320 320 321 322 322 323 324 324 325 325 326 327 328 327 327 327 327 327 327 326 326 325 325 325 324 324 324 324 325 326 327 328 329 330 330 331 331 331 332 331 331 330 330 330
276 278 281 283 283 285 286 287 288 289 290 291 292 293 294 296 297 298 299 299 301 301 302 303 303 304 305 305 306 307 308 309 310 312 313 314 315 315 315 317 318 319 319 320 321 321 322 323 323 323 324 326 327 327 327 326 326 326 326 326 326 325 325 325 325 324 323 323 323 324 324 325 326 328 328 329 329 330 330 330 329 329 329 329 329
273 276 278 279 280 282 284 284 285 286 287 288 289 291 292 293 295 296 296 297 299 300 301 301 302 303 303 303 304 305 306 308 309 311 312 313 314 314 315 316 317 318 319 320 321 322 322 322 322 322 322 324 325 325 325 325 325 325 325 325 324 324 324 324 324 324 323 323 323 323 323 323 324 326 327 327 328 329 329 328 327 327 327 328 328
272 273 275 276 278 279 280 281 282 284 285 286 288 289 290 291 293 294 295 296 297 298 300 300 300 301 301 302 303 303 305 306 308 309 311 312 312 313 314 315 317 317 319 320 321 322 322 322 321 321 321 323 323 323 323 324 323 323 323 323 323 323 324 324 324 323 323 323 322 322 322 322 323 324 325 325 326 327 327 326 326 326 327 327 328
270 271 272 273 275 276 277 279 280 282 284 285 287 287 288 290 291 292 293 294 296 297 299 299 299 299 300 302 302 302 304 306 307 309 310 311 312 313 314 315 316 317 318 319 320 321 321 321 320 320 320 321 321 321 322 322 321 322 322 322 322 323 324 324 323 323 322 322 322 322 322 322 322 323 323 324 325 325 324 325 325 325 326 327 327
269 270 271 272 273 274 276 278 280 281 283 284 286 287 288 289 290 291 292 293 295 297 298 298 298 299 300 301 301 302 304 306 307 309 310 311 312 313 314 315 316 317 318 319 320 320 320 320 319 319 320 319 319 319 320 320 320 320 321 321 322 323 323 323 323 323 323 322 322 322 322 321 322 322 323 323 323 322 322 323 324 324 325 325 326
268 269 270 271 272 273 275 277 279 281 282 283 284 286 288 288 289 290 291 293 294 296 297 298 298 299 301 302 302 303 305 307 308 310 311 311 312 313 314 315 316 317 317 318 319 319 319 319 318 319 318 318 318 318 318 318 318 319 320 321 322 322 323 323 323 323 323 322 322 322 322 321 321 322 322 322 321 321 321 322 323 323 324 324 324
268 268 270 271 272 273 275 276 278 279 281 282 284 285 286 287 288 289 291 292 294 295 296 297 298 299 301 302 302 304 306 307 308 310 310 311 312 313 313 314 315 316 316 316 317 317 318 317 317 317 317 316 316 317 317 317 318 319 320 320 321 322 322 322 322 322 322 322 322 322 322 321 322 322 322 321 320 320 321 322 322 323 323 323 323
267 268 269 271 272 273 274 275 277 279 280 282 282 283 285 286 287 288 290 292 292 294 296 297 297 299 301 302 302 304 306 306 308 309 309 310 311 312 312 313 314 314 315 314 315 315 316 315 315 315 315 315 315 316 316 317 317 318 319 320 320 321 321 321 321 321 322 322 322 322 322 322 322 322 321 319 319 320 320 320 321 322 322 322 323
267 267 268 270 271 272 273 275 276 278 279 281 281 282 283 284 286 287 289 290 291 293 295 296 297 299 301 301 302 304 305 305 307 308 308 309 310 311 311 312 313 313 313 312 313 314 314 314 313 314 314 314 315 315 316 316 317 318 318 319 319 320 320 320 320 320 321 321 321 322 322 322 322 320 319 319 319 319 319 320 320 321 321 321 322
267 268 268 269 271 272 273 274 276 277 279 280 282 283 284 284 286 287 288 289 291 293 294 295 296 299 300 300 302 304 304 305 306 306 306 308 309 309 310 310 311 311 311 311 312 312 312 312 312 312 313 313 314 314 315 315 316 317 317 318 318 319 319 319 319 320 320 321 321 321 322 322 320 319 318 318 318 318 319 319 320 320 320 321 322
266 267 268 270 271 272 273 275 276 277 279 281 282 283 284 285 286 287 288 290 291 293 293 295 297 298 298 300 302 302 302 304 305 305 306 307 307 307 308 309 309 309 308 309 310 310 310 310 310 311 312 312 313 313 314 315 315 316 317 317 318 318 318 318 319 319 320 321 321 322 322 321 319 318 318 318 317 318 318 319 319 319 320 321 321
265 267 268 270 271 273 274 275 276 278 279 281 282 282 283 284 285 287 288 290 291 292 293 295 296 297 298 299 300 300 301 302 303 304 305 306 306 307 307 308 308 308 307 308 308 308 308 309 309 310 311 312 312 313 313 314 315 316 316 317 317 317 318 318 318 319 320 321 322 322 321 319 318 317 317 317 317 317 318 318 318 319 320 320 320
265 266 267 269 271 272 273 275 276 277 279 280 281 281 282 283 285 286 288 289 290 291 292 294 295 296 297 297 298 298 299 300 300 302 303 304 305 306 306 307 307 307 307 307 308 308 308 309 310 310 311 311 312 312 313 314 314 315 316 316 317 317 318 318 319 320 321 322 322 321 319 317 317 317 317 316 316 317 317 317 318 318 319 320 320
265 266 267 268 269 271 272 274 275 277 278 279 279 280 281 283 285 286 288 288 289 290 291 293 294 295 296 296 297 297 298 298 299 300 301 302 303 303 305 306 306 306 306 307 307 308 309 309 310 310 310 311 312 312 313 313 314 315 315 316 317 317 318 318 319 320 321 321 320 318 317 316 316 316 316 316 316 317 317 317 318 318 319 319 319
265 266 267 268 269 271 272 274 275 277 278 278 279 280 282 283 285 286 287 288 289 290 291 292 293 293 294 295 296 296 297 297 297 299 300 301 301 302 303 304 305 305 305 307 308 309 309 309 309 310 310 310 311 312 313 313 314 315 315 316 317 317 317 318 319 320 320 319 318 316 316 316 316 315 315 315 316 316 316 317 318 318 319 319 319
266 267 268 268 269 271 273 274 275 277 277 278 279 281 283 284 286 287 287 288 289 290 291 291 292 292 293 294 294 295 296 296 296 298 300 300 300 301 301 302 304 304 304 307 308 309 309 309 309 310 310 310 311 312 313 313 314 314 315 315 316 316 317 318 319 319 318 317 316 316 315 315 315 315 315 315 315 315 316 317 318 318 318 318 319
267 268 268 269 270 272 273 275 275 276 277 278 280 282 283 285 286 287 287 288 289 290 291 291 291 292 292 293 293 294 294 295 296 297 299 299 300 300 300 301 304 304 304 306 307 308 308 308 309 309 310 311 311 312 312 313 313 314 314 314 315 315 316 317 318 317 316 315 315 315 315 315 315 314 314 314 315 315 316 317 317 318 318 318 318
268 269 269 270 271 273 274 275 275 276 278 279 281 282 284 285 286 287 287 288 288 289 290 290 290 291 292 292 293 293 294 294 295 296 297 298 299 299 299 301 303 303 304 305 306 306 307 307 308 309 309 310 311 311 312 312 313 313 313 313 314 315 316 316 316 315 314 315 315 314 314 314 314 313 313 314 315 315 316 317 317 318 318 318 318
269 269 270 271 272 273 274 275 276 277 278 279 281 282 283 284 285 286 286 287 287 288 289 289 290 290 291 291 292 292 293 293 294 295 297 297 298 299 300 301 303 303 304 304 305 306 306 306 307 308 309 309 310 311 311 311 312 312 312 313 313 314 315 315 314 314 314 314 314 313 313 313 312 312 313 314 315 315 316 317 317 317 317 318 317
269 270 270 271 273 273 274 275 276 277 278 279 280 281 282 283 284 284 285 285 286 287 288 289 289 290 290 291 291 292 292 292 294 295 296 297 298 299 300 301 302 303 303 303 304 305 306 306 307 307 307 308 309 310 310 310 310 311 311 312 313 313 313 313 313 313 313 313 313 312 312 312 312 312 313 314 315 316 316 316 317 317 317 317 317
269 270 270 271 272 273 274 275 275 276 277 278 279 279 280 281 282 283 284 284 285 286 287 288 288 288 289 290 291 291 292 292 294 295 296 297 298 298 300 301 301 302 302 302 303 304 305 305 305 306 306 307 308 308 308 309 309 310 311 312 312 312 312 312 312 312 312 312 312 311 311 312 312 313 314 315 315 316 316 316 316 317 317 317 316
269 270 271 272 273 274 274 275 275 276 276 277 278 278 280 281 282 282 282 283 284 285 286 286 287 287 288 289 290 291 291 292 293 294 295 296 297 298 299 300 300 300 301 302 303 303 304 304 304 305 306 306 307 307 307 308 309 310 311 311 311 311 311 311 311 311 311 311 311 311 311 312 313 314 314 315 315 315 316 316 316 317 316 316 315
269 271 272 273 274 274 275 275 275 275 276 277 277 278 279 280 281 281 281 282 283 284 285 285 286 287 288 289 289 290 290 291 292 293 294 296 297 298 298 298 299 299 300 301 302 303 303 303 303 304 305 305 306 306 307 308 309 310 310 310 310 310 310 310 310 311 311 310 310 311 311 312 313 314 314 315 315 315 316 316 316 316 316 315 315
269 270 272 273 274 274 274 275 275 275 276 277 277 278 279 280 280 281 281 282 283 284 284 285 286 286 287 288 289 289 290 290 292 293 294 295 296 297 297 298 298 299 300 301 302 302 302 302 302 303 304 304 305 306 307 308 308 309 309 309 309 309 309 310 310 310 310 310 310 311 311 312 313 313 314 314 314 315 315 316 316 315 315 314 313
269 270 271 272 273 273 274 274 275 276 277 277 278 279 280 280 281 281 282 283 283 284 284 285 286 286 287 288 288 289 289 290 292 293 294 295 296 296 297 298 298 299 299 300 301 301 301 301 302 302 303 304 305 306 307 307 307 307 307 307 307 308 308 308 308 308 308 309 310 310 311 312 312 313 313 313 314 314 315 315 315 314 314 313 312
269 270 271 272 272 273 274 275 275 276 277 278 278 279 280 280 281 281 282 282 283 284 284 285 285 286 287 287 288 289 290 291 293 293 294 295 296 296 297 298 298 299 299 300 300 300 300 301 301 302 302 304 305 305 305 305 305 305 305 305 306 306 306 306 306 307 308 309 309 310 311 311 311 312 312 313 313 314 314 314 314 313 313 312 311
269 270 271 271 272 273 274 275 275 276 276 277 278 279 279 280 280 281 281 282 283 283 284 285 285 286 287 288 289 290 291 292 293 293 294 295 296 297 297 298 298 298 298 299 299 300 300 300 301 302 303 304 304 303 303 303 303 304 304 304 304 305 305 306 307 308 308 309 309 310 310 311 311 312 312 313 313 314 314 314 313 313 312 311 310
268 269 270 271 272 273 274 275 275 276 277 277 278 279 279 280 280 281 281 282 283 284 284 285 286 287 288 289 290 291 291 292 293 294 295 295 296 297 297 297 297 298 298 299 299 299 300 301 301 302 303 303 302 302 302 302 302 303 303 303 304 305 305 306 307 308 308 309 309 310 310 310 311 311 312 313 313 313 313 313 312 311 310 309 309
269 270 271 271 272 273 274 275 275 276 276 277 278 279 279 280 280 281 282 283 283 284 285 286 287 288 289 290 290 291 292 293 294 294 295 295 296 296 296 297 297 298 298 299 299 300 301 301 301 301 301 301 301 302 302 301 301 302 302 303 304 305 306 306 307 308 308 308 309 309 310 310 311 311 312 312 312 312 312 312 311 309 309 309 309
269 270 270 271 272 273 273 274 275 275 276 277 278 279 279 279 280 281 282 283 284 284 285 286 287 288 289 290 291 292 293 293 293 294 294 295 295 296 296 297 297 298 299 299 300 300 300 300 300 300 300 300 300 300 300 300 301 302 303 304 304 305 306 306 307 307 307 308 308 309 309 310 311 311 312 312 312 312 311 310 309 309 310 310 310
269 269 270 271 271 272 273 274 274 275 276 277 278 278 279 279 280 281 282 283 284 285 286 287 288 289 289 290 291 291 292 292 293 293 294 294 295 296 296 297 298 298 299 299 299 299 300 299 299 299 299 299 299 299 300 300 302 303 303 304 304 305 305 305 306 306 307 307 308 309 310 310 311 311 311 311 310 310 310 310 310 310 311 311 310
269 269 270 271 271 272 273 274 275 275 276 277 278 278 279 280 281 282 283 284 284 285 286 287 288 289 289 290 290 291 291 292 292 293 293 294 295 295 296 296 297 297 298 298 298 298 298 298 297 297 297 298 298 299 300 301 302 303 303 304 304 304 305 305 306 306 307 308 308 309 310 310 310 310 310 309 309 309 310 310 311 311 311 311 310
269 269 270 271 272 273 274 274 275 276 276 277 278 279 280 280 281 282 283 284 284 285 286 287 288 288 289 289 290 291 291 291 292 292 293 293 294 294 295 295 296 296 296 296 296 296 296 296 296 297 297 298 299 300 301 302 302 303 303 303 304 304 305 305 306 306 307 308 309 309 309 309 309 309 308 308 309 310 310 311 311 310 310 310 309
269 269 270 271 272 273 274 274 275 276 276 277 278 279 280 280 281 282 283 283 284 285 286 287 287 288 289 289 290 290 290 290 290 291 292 292 293 293 294 294 294 295 295 295 295 295 295 296 296 297 298 299 300 300 301 302 302 302 303 303 303 304 305 305 306 306 307 308 308 308 308 308 308 308 308 309 309 310 310 310 310 310 310 309 308
268 269 270 271 272 273 273 274 275 275 276 277 278 278 279 280 281 281 282 283 284 285 285 286 287 287 288 288 288 289 289 289 289 290 290 291 292 292 292 293 293 293 294 294 295 295 295 296 297 298 298 299 300 300 301 301 302 302 302 303 303 304 305 305 306 307 307 308 307 307 306 307 307 308 308 309 309 310 310 309 309 309 309 309 308
268 269 269 270 271 272 273 273 274 275 276 276 277 278 278 279 280 281 281 282 283 284 285 285 286 287 287 287 287 287 288 288 288 289 289 290 290 291 291 292 293 294 294 295 295 295 296 297 297 298 299 299 300 300 301 301 301 302 302 303 304 304 305 306 306 306 306 306 306 306 306 307 307 308 308 309 309 309 309 309 309 309 309 309 308
268 268 269 270 270 271 272 273 274 274 275 276 277 277 278 279 280 281 282 282 283 284 285 285 286 286 286 286 286 286 287 287 287 288 288 289 290 291 292 293 293 294 295 295 295 296 296 297 297 298 299 299 299 300 300 301 301 302 303 303 304 304 305 305 305 305 305 305 305 306 306 307 307 308 308 308 309 309 309 308 309 309 308 308 307
268 268 269 270 270 271 272 273 274 275 276 276 277 278 279 279 280 281 281 282 283 283 284 284 284 285 285 285 285 286 286 286 287 288 288 289 290 291 292 293 294 294 295 295 295 296 296 297 297 298 298 299 299 300 300 301 302 302 303 303 304 304 304 304 304 304 304 305 305 306 306 306 307 308 308 308 308 308 308 308 308 308 307 307 307
268 268 269 270 271 272 273 273 274 275 276 276 277 278 278 279 279 280 280 280 281 282 282 283 283 284 284 285 285 286 286 287 287 288 289 290 290 291 292 292 293 294 294 295 295 296 296 296 297 297 298 298 299 300 301 301 302 302 303 303 303 303 303 303 303 303 304 305 305 306 306 307 307 308 308 308 308 308 308 307 307 307 306 306 306
267 268 268 269 270 271 272 273 273 274 274 275 276 276 276 277 277 278 279 279 280 281 282 283 283 284 284 285 285 286 286 287 288 288 289 289 290 291 291 292 293 293 294 294 295 295 295 296 296 297 298 299 300 300 301 301 302 302 302 302 302 302 303 303 303 304 304 305 306 306 307 307 308 308 308 308 308 308 308 308 307 307 306 306 306
267 268 269 269 270 271 271 272 273 273 274 274 275 275 276 277 277 278 279 280 281 281 282 283 283 284 284 285 285 286 286 287 287 288 289 289 290 291 291 292 292 293 293 294 294 294 295 296 296 297 298 299 300 300 300 301 301 301 301 301 301 301 302 303 303 304 305 306 306 307 307 307 308 309 309 308 309 309 308 308 308 308 307 307 307
267 268 269 269 270 271 271 272 273 273 274 274 275 276 276 277 278 278 279 280 281 281 282 282 283 284 284 285 285 286 286 287 287 288 288 289 290 290 291 291 292 292 292 293 293 294 295 296 297 298 298 299 299 299 300 300 300 300 300 300 301 301 302 303 304 304 305 306 306 307 307 308 308 308 308 308 309 309 308 308 309 309 309 308 308
267 267 268 269 270 270 271 272 272 273 273 274 275 275 276 277 277 278 279 279 280 280 281 281 282 283 284 284 285 285 286 286 287 288 288 289 289 290 290 290 291 291 292 293 293 294 295 296 297 297 298 298 298 299 299 299 299 299 300 300 301 302 303 303 304 305 306 306 306 307 308 309 308 308 308 308 309 309 308 309 309 310 310 309 309
267 268 268 269 269 270 270 271 271 272 273 273 274 275 275 276 277 278 278 279 279 280 281 281 282 282 283 283 284 285 285 286 286 287 287 288 288 289 289 290 291 291 292 293 294 294 295 296 296 297 297 297 297 298 298 298 299 300 300 301 301 302 303 304 304 305 306 306 306 307 308 308 308 308 308 308 309 309 309 309 310 310 310 310 310
267 268 268 269 269 269 270 271 271 272 272 273 274 275 275 276 277 277 278 278 279 280 281 281 282 282 283 283 284 284 285 285 285 286 286 287 288 289 290 290 291 291 292 293 293 294 295 295 296 296 296 297 297 298 298 299 300 300 301 301 302 303 303 304 304 305 305 305 306 306 307 308 308 308 308 308 308 309 309 310 310 310 310 311 311
Height
10885 10884 10884 10884 10883 10883 10882 10882 10881 10880 10880 10879 10879 10878 10878 10877 10876 10875 10874 10873 10872 10871 10870 10869 10868 10866 10865 10863 10862 10861 10859 10858 10856 10854 10853 10851 10849 10847 10844 10842 10840 10839 10837 10834 10832 10829 10827 10824 10821 10819 10816 10813 10809 10806 10803 10799 10796 10791 10787 10784 10780 10775 10771 10768 10766 10762 10759 10755 10751 10748 10745 10742 10738 10734 10730 10726 10722 10717 10712 10708 10703 10698 10693 10689 10684
10882 10882 10882 10881 10881 10880 10880 10879 10879 10878 10878 10877 10877 10876 10875 10874 10873 10872 10872 10871 10870 10869 10867 10866 10865 10863 10862 10861 10859 10858 10856 10855 10853 10851 10850 10848 10846 10844 10841 10839 10837 10836 10834 10832 10829 10827 10824 10822 10819 10816 10813 10810 10807 10804 10801 10797 10794 10790 10786 10782 10778 10773 10768 10763 10759 10755 10753 10750 10746 10743 10739 10736 10734 10730 10726 10722 10718 10714 10709 10705 10700 10695 10690 10685 10680
10880 10880 10879 10879 10879 10878 10877 10877 10876 10875 10875 10875 10874 10874 10873 10872 10871 10870 10869 10868 10867 10866 10864 10863 10862 10860 10859 10858 10856 10855 10853 10852 10850 10848 10846 10844 10843 10841 10838 10836 10834 10832 10830 10828 10826 10824 10821 10819 10816 10814 10811 10808 10805 10802 10798 10795 10792 10788 10784 10780 10776 10772 10767 10762 10757 10752 10748 10744 10741 10738 10735 10731 10728 10725 10721 10717 10713 10709 10705 10701 10697 10692 10687 10682 10677
10878 10877 10877 10877 10876 10875 10875 10874 10873 10873 10872 10872 10872 10871 10870 10869 10868 10867 10866 10865 10864 10862 10861 10860 10859 10857 10856 10854 10853 10852 10850 10848 10847 10845 10843 10841 10839 10837 10835 10833 10831 10828 10826 10824 10822 10820 10818 10815 10813 10810 10808 10805 10802 10799 10796 10792 10788 10785 10781 10777 10773 10770 10765 10761 10756 10751 10746 10742 10737 10733 10730 10726 10723 10719 10716 10712 10708 10704 10700 10695 10691 10687 10683 10678 10674
10875 10875 10875 10874 10873 10873 10872 10871 10870 10870 10870 10869 10869 10867 10867 10866 10865 10864 10863 10862 10861 10859 10858 10856 10855 10854 10852 10850 10849 10848 10846 10845 10843 10842 10840 10838 10836 10834 10832 10830 10828 10825 10823 10821 10818 10816 10814 10811 10809 10806 10803 10801 10798 10796 10793 10789 10785 10782 10778 10774 10770 10767 10763 10759 10755 10750 10745 10741 10736 10730 10725 10721 10718 10714 10711 10708 10704 10699 10695 10690 10685 10681 10677 10673 10669
10873 10873 10872 10871 10871 10870 10869 10868 10868 10867 10867 10866 10865 10864 10863 10863 10862 10860 10860 10858 10857 10856 10854 10853 10851 10850 10849 10847 10845 10844 10843 10841 10839 10838 10836 10834 10833 10831 10828 10826 10825 10823 10820 10818 10815 10812 10810 10807 10805 10802 10798 10796 10793 10791 10788 10785 10782 10778 10774 10771 10767 10763 10760 10756 10752 10748 10743 10739 10734 10729 10723 10718 10713 10709 10706 10702 10699 10695 10690 10685 10680 10675 10671 10667 10663
10871 10870 10869 10869 10868 10867 10866 10865 10865 10864 10863 10863 10862 10861 10860 10859 10858 10857 10856 10855 10854 10853 10851 10849 10847 10846 10845 10843 10841 10840 10839 10838 10836 10834 10833 10831 10829 10827 10825 10823 10821 10819 10817 10814 10812 10809 10806 10804 10800 10797 10794 10791 10788 10785 10783 10780 10777 10774 10771 10767 10763 10759 10756 10752 10748 10744 10739 10735 10731 10726 10721 10716 10710 10705 10700 10696 10692 10689 10685 10681 10676 10671 10666 10662 10657
10868 10867 10866 10866 10865 10864 10863 10862 10861 10861 10860 10860 10859 10858 10857 10856 10855 10853 10852 10851 10850 10849 10847 10845 10844 10842 10841 10839 10837 10836 10835 10834 10832 10830 10829 10827 10825 10823 10821 10819 10817 10815 10813 10810 10808 10805 10803 10800 10797 10793 10790 10787 10784 10781 10778 10775 10772 10769 10766 10763 10760 10756 10752 10748 10744 10740 10735 10731 10727 10722 10718 10713 10708 10703 10697 10692 10686 10682 10677 10674 10671 10667 10662 10657 10651
10864 10864 10863 10862 10861 10861 10860 10859 10858 10857 10857 10856 10856 10855 10854 10852 10851 10850 10848 10847 10846 10845 10844 10841 10839 10838 10837 10835 10833 10832 10831 10830 10828 10826 10825 10823 10821 10818 10816 10814 10813 10810 10808 10806 10803 10801 10798 10796 10793 10790 10787 10784 10781 10777 10774 10771 10767 10764 10761 10758 10755 10752 10749 10745 10740 10735 10730 10727 10723 10718 10714 10709 10705 10700 10695 10689 10683 10677 10671 10665 10662 10659 10656 10651 10645
10861 10860 10859 10859 10858 10857 10856 10855 10854 10854 10853 10852 10852 10851 10850 10849 10848 10846 10844 10843 10842 10841 10840 10837 10835 10834 10833 10832 10829 10827 10826 10825 10824 10822 10820 10818 10816 10814 10812 10810 10808 10806 10804 10801 10799 10797 10794 10791 10789 10786 10784 10781 10778 10774 10771 10767 10763 10760 10756 10753 10749 10747 10744 10741 10736 10731 10726 10722 10718 10714 10709 10705 10701 10696 10691 10685 10680 10675 10669 10662 10655 10649 10645 10642 10638
10857 10856 10855 10855 10854 10853 10852 10851 10850 10850 10849 10848 10848 10847 10846 10845 10844 10843 10841 10839 10838 10837 10836 10833 10831 10829 10829 10827 10825 10823 10822 10821 10819 10817 10815 10813 10811 10808 10807 10804 10802 10800 10798 10796 10793 10791 10789 10786 10783 10780 10778 10776 10773 10770 10767 10763 10759 10756 10752 10748 10744 10741 10738 10735 10731 10727 10722 10717 10713 10708 10704 10699 10695 10691 10686 10681 10675 10671 10666 10661 10654 10646 10640 10635 10631
10853 10852 10851 10850 10850 10849 10849 10848 10847 10846 10845 10845 10844 10843 10842 10841 10839 10838 10837 10835 10834 10833 10832 10830 10827 10825 10824 10822 10820 10818 10817 10816 10814 10812 10810 10807 10805 10803 10801 10799 10797 10795 10792 10790 10788 10785 10783 10780 10777 10775 10773 10770 10767 10765 10762 10758 10755 10751 10747 10743 10740 10736 10733 10728 10724 10720 10716 10712 10708 10703 10698 10693 10689 10685 10680 10674 10670 10665 10661 10657 10651 10644 10637 10630 10624
10849 10848 10846 10846 10845 10845 10845 10844 10843 10842 10841 10841 10840 10839 10837 10836 10835 10833 10832 10831 10829 10829 10828 10826 10823 10820 10820 10818 10815 10814 10813 10811 10809 10807 10805 10802 10800 10798 10796 10793 10791 10789 10786 10784 10782 10779 10777 10774 10772 10769 10767 10764 10761 10758 10755 10752 10749 10746 10742 10738 10735 10731 10727 10723 10718 10714 10710 10706 10702 10697 10692 10686 10681 10677 10672 10667 10663 10658 10654 10650 10645 10640 10633 10626 10618
10844 10844 10842 10841 10841 10841 10840 10840 10839 10837 10836 10836 10835 10834 10833 10832 10831 10829 10828 10826 10824 10824 10823 10822 10819 10817 10815 10813 10810 10809 10808 10806 10805 10802 10800 10797 10795 10793 10790 10788 10786 10783 10781 10778 10775 10773 10771 10768 10765 10763 10761 10758 10755 10752 10749 10745 10742 10739 10736 10732 10728 10725 10721 10717 10712 10708 10703 10699 10695 10690 10685 10680 10674 10669 10664 10660 10656 10651 10646 10642 10637 10633 10628 10622 10615
10839 10839 10838 10837 10837 10836 10836 10835 10835 10834 10832 10831 10831 10830 10829 10827 10826 10825 10824 10822 10819 10819 10819 10817 10815 10813 10811 10807 10805 10804 10802 10801 10800 10797 10794 10792 10790 10787 10784 10782 10780 10777 10774 10771 10768 10766 10763 10760 10758 10756 10753 10750 10748 10745 10741 10738 10734 10731 10728 10725 10722 10719 10715 10710 10706 10702 10697 10692 10688 10682 10678 10673 10667 10662 10657 10653 10649 10644 10638 10633 10628 10624 10620 10615 10609
10833 10833 10833 10832 10832 10831 10831 10830 10830 10829 10828 10826 10825 10824 10823 10822 10821 10820 10819 10817 10815 10814 10813 10811 10811 10810 10807 10803 10800 10798 10795 10794 10794 10791 10789 10788 10784 10781 10779 10776 10773 10771 10767 10764 10762 10759 10756 10753 10751 10748 10746 10743 10741 10738 10735 10731 10728 10725 10721 10718 10715 10712 10708 10703 10699 10695 10690 10686 10680 10675 10670 10664 10659 10655 10651 10646 10641 10636 10631 10625 10620 10615 10611 10606 10600
10828 10828 10827 10826 10826 10825 10825 10825 10824 10824 10823 10822 10820 10819 10818 10817 10816 10814 10813 10812 10810 10809 10807 10806 10806 10805 10803 10799 10796 10793 10789 10787 10786 10783 10781 10782 10780 10776 10774 10772 10768 10765 10763 10759 10756 10754 10751 10748 10745 10743 10740 10737 10735 10732 10728 10725 10721 10717 10714 10709 10706 10703 10699 10695 10691 10687 10682 10677 10672 10666 10661 10656 10651 10647 10643 10638 10633 10627 10622 10617 10611 10606 10601 10596 10591
10822 10822 10821 10821 10820 10820 10819 10818 10818 10818 10817 10816 10815 10814 10813 10812 10811 10809 10808 10807 10806 10803 10801 10800 10799 10798 10798 10795 10793 10790 10786 10782 10780 10776 10772 10771 10771 10770 10768 10766 10763 10759 10756 10754 10750 10747 10745 10742 10739 10736 10733 10730 10727 10724 10720 10716 10713 10709 10705 10701 10697 10693 10689 10685 10681 10676 10672 10667 10662 10657 10652 10648 10643 10639 10634 10630 10625 10619 10614 10609 10603 10598 10592 10586 10581
10816 10816 10816 10815 10814 10814 10813 10812 10812 10812 10811 10811 10809 10808 10807 10806 10805 10804 10803 10801 10800 10798 10795 10794 10793 10791 10791 10790 10787 10786 10783 10779 10776 10774 10770 10762 10758 10759 10760 10758 10755 10752 10750 10747 10742 10738 10736 10734 10731 10728 10724 10721 10718 10715 10712 10708 10705 10701 10697 10693 10688 10684 10679 10675 10670 10665 10661 10656 10652 10647 10643 10639 10635 10631 10625 10620 10616 10611 10606 10600 10595 10589 10583 10577 10571
10811 10811 10810 10810 10808 10808 10807 10806 10806 10805 10805 10804 10802 10802 10801 10800 10800 10799 10797 10796 10794 10792 10790 10789 10787 10784 10783 10783 10781 10779 10778 10776 10772 10771 10771 10765 10754 10748 10749 10749 10745 10740 10740 10740 10735 10730 10728 10725 10723 10720 10716 10712 10709 10707 10703 10700 10696 10692 10688 10684 10679 10674 10669 10665 10661 10656 10651 10647 10643 10639 10635 10630 10626 10621 10617 10611 10607 10602 10596 10591 10586 10579 10573 10567 10561
10805 10804 10804 10803 10802 10802 10801 10801 10799 10799 10799 10797 10795 10795 10795 10794 10793 10792 10791 10789 10788 10787 10784 10782 10781 10779 10777 10775 10774 10772 10770 10769 10766 10765 10766 10766 10758 10746 10741 10742 10740 10731 10727 10728 10724 10718 10717 10715 10714 10712 10708 10703 10700 10698 10694 10690 10687 10683 10679 10675 10670 10666 10662 10658 10653 10648 10643 10639 10635 10631 10626 10621 10617 10612 10608 10603 10598 10593 10587 10582 10576 10570 10563 10556 10550
10798 10798 10798 10797 10796 10796 10795 10795 10794 10793 10792 10790 10789 10788 10788 10788 10787 10785 10784 10782 10780 10780 10778 10776 10774 10773 10771 10769 10767 10766 10764 10761 10759 10758 10759 10759 10757 10750 10739 10735 10736 10729 10720 10721 10717 10707 10702 10700 10700 10699 10696 10694 10691 10688 10685 10682 10679 10675 10671 10667 10663 10659 10655 10651 10646 10641 10636 10632 10628 10623 10617 10612 10608 10603 10598 10593 10589 10584 10577 10572 10566 10560 10553 10546 10539
10791 10791 10791 10790 10790 10790 10789 10789 10788 10787 10785 10783 10783 10782 10781 10781 10780 10778 10776 10774 10773 10772 10771 10768 10766 10765 10764 10763 10761 10759 10757 10754 10752 10751 10751 10750 10750 10749 10740 10732 10732 10725 10715 10714 10714 10707 10697 10690 10688 10686 10683 10681 10680 10678 10676 10672 10669 10667 10663 10659 10655 10652 10648 10643 10638 10634 10630 10625 10620 10615 10609 10603 10598 10593 10588 10583 10578 10573 10566 10561 10556 10549 10542 10536 10528
10784 10784 10783 10783 10784 10785 10783 10782 10781 10780 10779 10777 10776 10775 10775 10774 10772 10771 10769 10766 10765 10764 10763 10760 10757 10756 10756 10755 10754 10752 10748 10745 10744 10744 10743 10741 10740 10741 10737 10731 10729 10722 10711 10706 10704 10702 10696 10686 10680 10678 10674 10671 10669 10668 10665 10662 10659 10657 10655 10651 10646 10643 10640 10635 10631 10627 10623 10618 10613 10607 10601 10595 10590 10585 10579 10573 10568 10562 10556 10550 10545 10538 10531 10525 10518
10776 10776 10775 10775 10778 10778 10776 10776 10775 10774 10772 10771 10770 10769 10768 10767 10765 10763 10761 10758 10757 10756 10755 10752 10749 10747 10747 10746 10745 10743 10740 10736 10734 10735 10734 10732 10731 10730 10728 10726 10724 10719 10710 10701 10694 10692 10689 10682 10674 10670 10666 10664 10661 10659 10656 10652 10650 10648 10646 10641 10636 10633 10630 10626 10623 10619 10614 10610 10605 10599 10594 10588 10583 10577 10572 10566 10560 10553 10546 10540 10534 10528 10520 10514 10507
10768 10767 10767 10768 10770 10770 10769 10769 10767 10766 10766 10764 10763 10762 10761 10761 10759 10757 10754 10752 10750 10749 10747 10744 10741 10738 10737 10737 10736 10734 10731 10727 10725 10725 10724 10722 10721 10720 10718 10717 10716 10713 10707 10698 10689 10683 10679 10674 10668 10663 10659 10656 10654 10651 10648 10645 10642 10640 10637 10633 10628 10624 10622 10618 10613 10609 10605 10601 10596 10590 10584 10579 10573 10568 10562 10556 10549 10543 10536 10530 10524 10517 10509 10503 10496
10758 10758 10758 10760 10762 10762 10762 10762 10760 10759 10758 10757 10756 10755 10754 10753 10752 10750 10747 10744 10743 10743 10740 10736 10733 10730 10728 10727 10727 10725 10722 10719 10718 10717 10715 10713 10712 10710 10709 10709 10707 10705 10701 10695 10687 10679 10673 10667 10660 10655 10653 10649 10645 10642 10638 10636 10634 10632 10627 10623 10619 10615 10611 10608 10603 10599 10595 10589 10584 10579 10573 10567 10561 10555 10549 10543 10537 10531 10525 10519 10513 10506 10499 10492 10484
10749 10748 10749 10751 10752 10753 10753 10753 10751 10751 10750 10749 10748 10747 10746 10746 10745 10742 10739 10737 10736 10736 10733 10729 10726 10723 10721 10720 10718 10717 10714 10711 10711 10710 10707 10704 10703 10701 10700 10699 10699 10698 10695 10690 10683 10674 10668 10662 10652 10646 10646 10643 10638 10633 10628 10625 10622 10620 10616 10611 10609 10604 10599 10595 10591 10587 10583 10577 10571 10565 10560 10555 10548 10542 10536 10530 10524 10519 10513 10508 10501 10494 10486 10479 10472
10740 10739 10740 10742 10742 10743 10743 10743 10742 10741 10741 10740 10739 10738 10738 10737 10736 10734 10731 10729 10729 10728 10725 10722 10719 10716 10715 10713 10710 10708 10706 10704 10703 10701 10698 10696 10694 10693 10691 10689 10688 10689 10687 10685 10679 10668 10661 10658 10649 10640 10637 10635 10631 10626 10620 10616 10613 10609 10604 10599 10596 10592 10586 10581 10577 10573 10569 10563 10558 10553 10548 10543 10537 10531 10525 10519 10512 10506 10500 10494 10487 10480 10472 10465 10459
10732 10732 10731 10732 10732 10732 10733 10733 10732 10732 10732 10731 10730 10729 10729 10729 10727 10725 10722 10720 10720 10720 10716 10713 10711 10709 10707 10704 10702 10700 10697 10696 10695 10692 10689 10687 10685 10683 10681 10678 10677 10677 10677 10678 10675 10663 10652 10650 10645 10636 10631 10627 10623 10619 10613 10609 10606 10601 10596 10590 10586 10582 10576 10570 10565 10561 10556 10551 10546 10542 10537 10532 10526 10521 10516 10509 10503 10496 10489 10482 10475 10468 10460 10453 10448
10724 10724 10723 10723 10723 10722 10722 10722 10722 10722 10721 10721 10720 10719 10719 10719 10717 10715 10712 10710 10710 10709 10706 10703 10701 10699 10698 10695 10693 10690 10689 10688 10686 10683 10680 10678 10676 10673 10670 10667 10665 10665 10664 10666 10667 10657 10644 10641 10637 10629 10625 10621 10614 10610 10606 10601 10597 10593 10588 10583 10579 10575 10570 10565 10559 10554 10549 10543 10538 10533 10528 10523 10517 10512 10507 10501 10494 10488 10481 10474 10467 10459 10451 10444 10437
10715 10715 10715 10715 10714 10713 10713 10712 10712 10712 10711 10711 10710 10709 10709 10708 10706 10704 10701 10700 10700 10698 10695 10693 10691 10689 10688 10686 10683 10680 10679 10679 10677 10673 10669 10667 10665 10662 10658 10656 10653 10652 10651 10652 10655 10649 10636 10631 10628 10621 10617 10614 10608 10602 10599 10593 10588 10584 10579 10574 10571 10567 10562 10557 10552 10546 10541 10535 10529 10524 10519 10513 10507 10502 10496 10490 10484 10477 10471 10464 10457 10449 10441 10433 10425
10705 10706 10706 10705 10704 10704 10704 10703 10702 10702 10701 10701 10700 10700 10699 10698 10696 10694 10691 10689 10689 10687 10685 10682 10680 10678 10678 10677 10673 10670 10668 10669 10666 10661 10657 10655 10653 10651 10647 10644 10641 10638 10638 10639 10640 10638 10628 10619 10616 10611 10607 10605 10600 10595 10592 10587 10580 10574 10569 10564 10561 10557 10553 10547 10541 10535 10530 10524 10518 10513 10507 10501 10495 10490 10484 10478 10472 10465 10458 10451 10444 10436 10427 10420 10413
10696 10697 10697 10695 10695 10694 10694 10693 10692 10691 10691 10691 10690 10690 10689 10687 10685 10683 10681 10679 10678 10676 10674 10672 10669 10667 10667 10666 10663 10658 10657 10657 10654 10649 10645 10643 10641 10639 10635 10632 10629 10626 10625 10625 10626 10625 10620 10609 10602 10598 10595 10592 10589 10585 10582 10577 10571 10566 10560 10555 10550 10546 10542 10536 10531 10525 10518 10511 10505 10499 10494 10488 10482 10476 10471 10465 10459 10453 10446 10438 10431 10423 10416 10410 10403
10687 10688 10686 10685 10685 10684 10684 10683 10681 10681 10681 10680 10679 10679 10678 10676 10674 10672 10670 10668 10666 10664 10662 10660 10658 10657 10657 10655 10651 10647 10645 10645 10641 10636 10633 10631 10628 10626 10623 10619 10617 10614 10611 10611 10611 10611 10609 10601 10591 10585 10583 10580 10577 10573 10570 10566 10561 10556 10552 10546 10540 10535 10530 10524 10519 10515 10508 10500 10493 10487 10482 10475 10467 10461 10455 10450 10445 10439 10432 10426 10420 10413 10406 10398 10390
10677 10676 10675 10675 10675 10674 10674 10672 10671 10670 10670 10669 10668 10667 10666 10664 10662 10661 10659 10657 10655 10653 10651 10649 10647 10646 10646 10644 10640 10636 10634 10633 10629 10624 10622 10619 10616 10613 10610 10606 10604 10602 10599 10597 10596 10596 10596 10591 10581 10574 10570 10568 10564 10561 10558 10555 10549 10545 10541 10535 10529 10524 10519 10513 10508 10504 10498 10490 10482 10476 10470 10463 10455 10447 10440 10435 10429 10423 10418 10412 10406 10399 10392 10384 10376
10666 10665 10664 10664 10663 10663 10663 10661 10660 10660 10658 10658 10657 10656 10654 10652 10651 10650 10647 10645 10643 10641 10639 10637 10636 10635 10634 10632 10628 10625 10623 10620 10616 10612 10610 10607 10603 10600 10597 10593 10591 10590 10587 10584 10582 10582 10581 10578 10572 10563 10559 10556 10552 10548 10546 10544 10539 10533 10528 10523 10517 10514 10510 10503 10496 10492 10487 10479 10471 10464 10458 10450 10442 10434 10428 10422 10415 10409 10405 10399 10391 10383 10376 10369 10362
10654 10653 10652 10652 10652 10652 10651 10650 10649 10648 10647 10646 10645 10644 10642 10640 10639 10638 10636 10634 10632 10630 10628 10626 10624 10623 10622 10620 10616 10613 10611 10607 10602 10599 10597 10594 10591 10587 10584 10581 10579 10577 10574 10571 10569 10568 10567 10564 10560 10554 10549 10544 10540 10536 10532 10530 10527 10522 10517 10511 10503 10499 10498 10493 10484 10478 10473 10466 10458 10450 10443 10436 10428 10421 10415 10410 10403 10396 10389 10382 10375 10369 10363 10357 10349
10642 10641 10640 10640 10640 10640 10639 10638 10637 10636 10635 10634 10633 10631 10630 10628 10628 10626 10624 10622 10620 10618 10616 10614 10612 10611 10609 10607 10604 10601 10598 10594 10590 10586 10584 10581 10578 10575 10572 10569 10567 10564 10561 10558 10556 10555 10553 10550 10546 10542 10538 10532 10527 10523 10518 10515 10513 10509 10505 10501 10493 10485 10481 10477 10471 10466 10460 10452 10444 10436 10428 10422 10416 10408 10403 10397 10390 10382 10374 10367 10360 10355 10350 10345 10339
10629 10629 10628 10628 10628 10628 10627 10626 10625 10623 10623 10621 10620 10619 10618 10616 10615 10614 10612 10610 10608 10606 10604 10602 10600 10598 10596 10594 10591 10588 10584 10581 10577 10574 10571 10568 10566 10563 10560 10557 10555 10552 10549 10546 10544 10542 10539 10536 10532 10528 10525 10519 10514 10511 10506 10502 10499 10494 10490 10488 10483 10476 10470 10463 10456 10452 10449 10441 10432 10424 10416 10411 10406 10398 10389 10383 10376 10369 10362 10354 10348 10343 10338 10332 10326
10617 10616 10617 10616 10616 10615 10614 10613 10612 10611 10610 10609 10608 10607 10606 10604 10603 10602 10600 10598 10596 10593 10591 10589 10588 10586 10584 10581 10578 10575 10571 10568 10565 10561 10558 10555 10553 10550 10547 10545 10543 10540 10537 10534 10531 10528 10525 10521 10518 10514 10511 10505 10500 10498 10493 10488 10485 10480 10475 10472 10469 10463 10458 10451 10442 10435 10435 10432 10424 10414 10405 10400 10397 10388 10377 10370 10364 10357 10351 10344 10337 10333 10327 10320 10314
10603 10603 10604 10604 10604 10603 10601 10600 10599 10598 10597 10597 10596 10594 10593 10592 10590 10589 10588 10586 10584 10581 10579 10577 10575 10573 10570 10568 10564 10561 10558 10555 10552 10549 10545 10542 10540 10537 10534 10532 10530 10527 10524 10520 10517 10514 10511 10507 10502 10500 10497 10491 10485 10483 10481 10475 10470 10465 10460 10457 10453 10448 10443 10438 10428 10419 10417 10418 10414 10405 10393 10384 10383 10377 10365 10358 10353 10345 10339 10333 10327 10323 10317 10311 10304
10589 10589 10590 10590 10590 10589 10588 10587 10586 10585 10585 10583 10583 10582 10580 10579 10578 10576 10575 10573 10570 10568 10565 10564 10562 10559 10557 10554 10551 10548 10545 10542 10539 10535 10532 10529 10526 10524 10520 10518 10516 10513 10510 10506 10503 10500 10497 10492 10487 10485 10483 10477 10471 10468 10466 10461 10455 10449 10444 10440 10437 10433 10428 10423 10415 10406 10402 10402 10400 10394 10383 10371 10368 10366 10355 10346 10342 10335 10327 10323 10318 10313 10308 10302 10296
10573 10574 10575 10575 10575 10574 10574 10574 10573 10572 10571 10570 10569 10568 10566 10565 10564 10563 10561 10559 10557 10554 10552 10551 10548 10546 10543 10540 10537 10534 10531 10528 10525 10521 10518 10515 10512 10509 10506 10503 10501 10498 10495 10492 10489 10486 10483 10478 10473 10469 10468 10464 10457 10453 10450 10446 10441 10434 10429 10423 10419 10417 10413 10407 10402 10394 10388 10387 10385 10382 10373 10360 10355 10354 10345 10335 10331 10324 10316 10313 10310 10305 10299 10295 10289
10559 10560 10560 10560 10560 10560 10560 10560 10559 10559 10557 10556 10555 10554 10553 10552 10551 10550 10548 10546 10544 10541 10539 10537 10535 10532 10529 10526 10523 10521 10517 10514 10510 10507 10504 10501 10498 10495 10492 10489 10487 10484 10481 10478 10475 10472 10468 10464 10459 10454 10452 10449 10444 10438 10434 10431 10426 10420 10414 10408 10402 10400 10398 10392 10386 10379 10372 10369 10368 10366 10361 10349 10342 10341 10334 10324 10319 10313 10304 10300 10298 10295 10291 10286 10281
10544 10545 10545 10546 10546 10547 10546 10546 10546 10545 10544 10543 10541 10540 10539 10538 10537 10536 10534 10532 10530 10528 10525 10523 10520 10518 10515 10513 10510 10506 10502 10499 10495 10493 10490 10487 10484 10481 10478 10475 10473 10470 10467 10463 10460 10457 10453 10449 10445 10439 10435 10433 10429 10424 10418 10414 10411 10405 10400 10394 10388 10385 10382 10376 10370 10363 10356 10351 10347 10347 10346 10337 10328 10328 10322 10312 10307 10300 10290 10286 10284 10282 10280 10276 10271
10528 10529 10531 10532 10532 10532 10532 10533 10532 10532 10530 10528 10527 10525 10524 10524 10523 10521 10519 10517 10515 10513 10510 10508 10505 10503 10501 10498 10495 10492 10488 10484 10481 10478 10476 10472 10469 10467 10463 10461 10458 10455 10453 10450 10446 10442 10438 10434 10430 10425 10420 10416 10413 10408 10403 10399 10395 10390 10385 10379 10373 10370 10367 10361 10354 10347 10341 10335 10329 10328 10330 10324 10315 10314 10309 10300 10295 10288 10278 10273 10271 10268 10265 10263 10260
10514 10515 10516 10517 10518 10518 10518 10518 10518 10517 10515 10513 10512 10510 10509 10508 10507 10506 10504 10502 10500 10498 10496 10493 10491 10488 10485 10483 10480 10477 10474 10470 10467 10464 10461 10458 10455 10452 10448 10446 10443 10440 10439 10436 10431 10428 10425 10420 10416 10411 10405 10401 10397 10393 10388 10384 10380 10375 10370 10364 10358 10355 10352 10347 10341 10334 10327 10321 10313 10309 10312 10309 10301 10298 10296 10290 10285 10278 10267 10260 10257 10254 10251 10249 10246
10500 10501 10502 10503 10504 10504 10503 10503 10503 10502 10500 10499 10497 10496 10494 10493 10492 10490 10489 10487 10485 10483 10481 10479 10476 10473 10471 10468 10466 10463 10459 10456 10452 10449 10446 10443 10440 10437 10434 10431 10427 10425 10424 10422 10417 10413 10410 10406 10401 10397 10391 10386 10382 10378 10373 10369 10365 10360 10355 10349 10342 10338 10335 10330 10326 10320 10314 10307 10298 10293 10295 10293 10286 10282 10281 10278 10274 10267 10256 10249 10245 10241 10238 10236 10233
10484 10486 10487 10488 10489 10489 10488 10488 10488 10487 10486 10484 10482 10481 10479 10478 10477 10475 10473 10471 10469 10467 10465 10464 10461 10459 10456 10453 10450 10448 10445 10442 10439 10435 10432 10429 10426 10423 10419 10415 10411 10408 10407 10405 10401 10398 10395 10391 10386 10381 10376 10371 10368 10363 10359 10354 10349 10344 10339 10333 10326 10321 10318 10314 10310 10307 10302 10295 10285 10279 10280 10278 10270 10265 10263 10264 10264 10257 10245 10236 10233 10230 10227 10224 10220
10469 10469 10470 10472 10473 10473 10473 10473 10473 10472 10471 10469 10467 10466 10465 10463 10461 10459 10457 10454 10453 10451 10449 10448 10445 10443 10440 10437 10435 10432 10429 10426 10424 10421 10418 10414 10411 10407 10403 10399 10395 10391 10390 10388 10385 10382 10380 10376 10370 10365 10359 10355 10351 10347 10342 10337 10332 10327 10322 10316 10310 10306 10302 10299 10294 10291 10289 10283 10273 10268 10267 10264 10256 10250 10246 10246 10250 10249 10239 10227 10219 10216 10215 10214 10209